Flag for Slovenia Weather past 2 weeks in Celje, Slovenia

Now
63 °F

Mild.


Feels Like: 63 °F
Forecast: 40 / 66 °F
Wind: 3 mph from East

Location: Celje

Current Time: Sep 22, 2014 at 2:41:50 AM

Latest Report: Sep 22, 2014 at 1:00 AM


Visibility: N/A

Pressure: 29.86 "Hg

Humidity: 81%

Dew point: 57 °F

Location of CeljeLocation

Historic Weather in Celje — Graph

°F

Celje temperature yesterday

Maximum temperature yesterday: 80 °F (at 3:00 PM)
Minimum temperature yesterday: 59 °F (at 5:00 AM)
Average temperature yesterday: 67 °F

Past Weeks' High & Low Weather Summary

 TemperatureHumidityPressure
High82 °F (Sep 9, 4:00 PM)100% (Sep 17, 6:00 AM)30.12 "Hg (Sep 17, 6:00 AM)
Low51 °F (Sep 19, 2:00 AM)47% (Sep 9, 4:00 PM)29.82 "Hg (Sep 21, 6:00 PM)
Average62 °F87%30.00 "Hg
* Reported Sep 7 1:00 AM — Sep 22 1:00 AM, Celje, Weather by CustomWeather, © 2014

Note: Actual official high and low records may vary slightly from our data, if they occured in-between our weather recording intervals... More about our weather records

Advertising

Celje weather history for previous 24 hours

 ConditionsComfort  
Time TempWeatherWind HumidityBarometerVisibility
1:00 AM
Sep 22
63 °FMild.3 mph81%29.86 "HgN/A
12:00 AM65 °FMild.5 mph75%29.85 "HgN/A
11:00 PM
Sep 21
65 °FMild.2 mph87%29.85 "HgN/A
10:00 PM64 °FMild.1 mph90%29.86 "HgN/A
9:00 PM66 °FMild.1 mph86%29.84 "HgN/A
8:00 PM66 °FPassing clouds.1 mph81%29.84 "Hg19 mi
7:00 PM71 °FMild.2 mph68%29.83 "HgN/A
6:00 PM76 °FMild.2 mph58%29.82 "HgN/A
5:00 PM78 °FWarm.3 mph54%29.83 "HgN/A
4:00 PM78 °FWarm.1 mph66%29.84 "HgN/A
3:00 PM80 °FScattered clouds.1 mph53%29.86 "Hg31 mi
2:00 PM78 °FScattered clouds.1 mph61%29.89 "Hg28 mi
1:00 PM74 °FMild.1 mph68%29.93 "HgN/A
11:00 AM70 °FMild.3 mph74%29.96 "HgN/A
10:00 AM67 °FMild.3 mph80%29.98 "HgN/A
9:00 AM65 °FMild.3 mph84%29.97 "HgN/A
8:00 AM62 °FPartly sunny.3 mph89%29.96 "Hg11 mi
7:00 AM60 °FPartly sunny.3 mph96%29.97 "Hg11 mi
6:00 AM61 °FCool.2 mph97%29.97 "HgN/A
5:00 AM59 °FCool.2 mph98%29.98 "HgN/A
4:00 AM60 °FCool.1 mph98%29.97 "HgN/A
3:00 AM61 °FCool.1 mph96%29.98 "HgN/A
2:00 AM63 °FMild.2 mph93%29.98 "HgN/A
Weather by CustomWeather, © 2014

See weather overviewHow to use our weather pages